Location: Coutant
(46.3735°N, 3.4982°E)
Time: 04:18:19
(UTC+00:00)

Daily predictions for brighter satellites

Satellite Brightness Start Highest point End
(mag) Time Altitude Azimuth Time Altitude Azimuth Time Altitude Azimuth
CZ-4C R/B 4.4 00:06:34 22° N 00:06:34 22° N 00:10:11 10° NNE
Cosmos 2227 Rocket 4.4 00:52:19 10° NNW 00:54:07 20° N 00:54:07 20° N
SL-16 R/B 3.9 01:15:09 32° N 01:15:09 32° N 01:18:17 10° NNW
CZ-2D R/B 4.0 01:16:28 10° NNE 01:18:48 26° NNE 01:18:48 26° NNE
Lacrosse 5 4.3 01:29:27 17° ENE 01:29:27 17° ENE 01:30:46 10° ENE
ATLAS 5 CENTAUR R/B 4.3 01:30:41 17° NNE 01:30:41 17° NNE 01:31:58 10° NNE
Resurs 1-4 Rocket 3.9 01:23:33 10° NNE 01:25:56 27° NNE 01:25:56 27° NNE
USA 234 4.0 01:45:09 10° E 01:51:22 49° NNE 01:55:07 24° NW
Cosmos 1697 Rocket 3.6 02:01:35 45° ENE 02:01:35 45° ENE 02:05:47 10° NE
Cosmos 1980 Rocket 3.5 02:05:36 33° ESE 02:05:36 33° ESE 02:10:32 10° NE
Cosmos 2263 Rocket 4.1 02:06:32 10° N 02:11:19 27° NE 02:16:05 10° ESE
CZ-3B R/B 3.6 02:25:23 32° NE 02:25:23 32° NE 02:29:16 10° NE
ADEOS II 2.7 02:21:25 10° NNE 02:25:23 52° N 02:25:23 52° N
Nadezhda 3 Rocket 3.9 02:26:57 76° ESE 02:27:05 77° E 02:33:14 10° NNE
Cosmos 1656 4.4 02:32:28 43° NNW 02:32:28 43° NNW 02:36:39 10° NNE
ARIANE 5 R/B 3.0 02:26:33 10° NNE 02:31:22 55° E 02:31:22 55° E
IDEFIX/ARIANE 42P 3.3 02:30:53 10° NNE 02:36:01 48° E 02:36:51 44° SE
IRS-1D 4.2 02:31:20 10° N 02:35:23 48° NNW 02:35:23 48° NNW
ASTEX 1 4.0 02:35:50 10° NNE 02:40:44 53° E 02:41:22 50° ESE
CZ-2D R/B 4.2 02:44:33 10° NNE 02:48:18 53° ENE 02:48:18 53° ENE
IRS-1C 4.0 02:47:37 10° NNE 02:52:48 75° NW 02:52:48 75° NW
USA 307 3.5 02:57:59 54° NNE 02:57:59 54° NNE 03:01:28 10° NE
Cosmos 1782 3.7 02:59:09 45° NNE 02:59:09 45° NNE 03:02:02 10° N
NOSS 3-3 (A) 4.5 02:56:41 37° SSE 02:58:28 49° ESE 03:04:37 10° NE
NOSS 3-3 (C) 4.5 02:56:50 37° SSE 02:58:36 49° ESE 03:04:41 10° NE
USA 267 3.2 02:52:15 10° NE 02:58:50 85° NW 03:00:27 55° WSW
SJ 16-02 2.6 02:55:04 10° N 02:59:15 41° ENE 03:03:25 10° SE
Cosmos 1238 Rocket 4.0 02:52:39 10° N 02:59:18 80° E 03:04:08 17° SSE
Cosmos 44 3.3 02:59:36 64° ESE 02:59:36 64° ESE 03:04:03 10° NE
CZ-2C R/B 3.8 02:56:26 10° NNE 03:00:03 41° E 03:00:12 41° ESE
USA 308 3.4 03:01:02 55° NNE 03:01:02 55° NNE 03:04:39 10° NE
Cosmos 389 Rocket 3.9 03:02:26 35° NNE 03:02:26 35° NNE 03:04:38 10° NNE
CZ-2D R/B 3.8 02:57:29 10° NNW 03:00:07 19° NW 03:00:07 19° NW
USA 276 4.2 03:04:24 28° NE 03:04:24 28° NE 03:06:14 10° ENE
Cosmos 2278 3.6 03:02:25 68° SW 03:03:11 84° WNW 03:08:56 10° NNE
Resurs 1-4 Rocket 3.9 03:04:38 10° NNW 03:07:01 17° NW 03:07:01 17° NW
Lacrosse 5 2.1 03:08:39 55° NW 03:09:00 56° NNW 03:14:01 10° NE
H-2A R/B 2.9 03:04:54 10° SE 03:09:08 51° ENE 03:13:29 10° N
ERBS 3.9 03:11:03 30° ESE 03:11:03 30° ESE 03:13:27 10° ENE
ERS-1 4.4 03:06:15 10° N 03:11:20 66° WNW 03:11:43 64° W
Cosmos 2369 3.9 03:11:30 50° WNW 03:12:00 52° WNW 03:17:37 10° NNE
ATLAS 2AS CENTAUR R/B 4.2 03:05:27 10° NNW 03:12:31 38° NNE 03:19:05 10° E
ATLAS 5 CENTAUR R/B 3.9 03:12:12 14° NW 03:13:20 15° NNW 03:16:06 10° NNE
Landsat 5 3.9 03:17:14 10° SSE 03:21:44 71° ENE 03:26:12 10° N
Helios 1B 4.5 03:19:26 27° SSE 03:21:47 88° ENE 03:26:09 10° NNW
ADEOS Rocket 4.1 03:16:36 10° SE 03:23:00 48° ENE 03:28:49 10° N
CZ-4B R/B 4.3 03:21:56 10° ESE 03:24:08 18° ENE 03:26:23 10° NNE
Cosmos 972 4.3 03:25:29 53° SW 03:26:33 72° WNW 03:31:27 10° NNE
ERS-2 3.2 03:28:27 10° SE 03:31:58 46° ENE 03:35:30 10° N
Spot 4 Rocket 4.0 03:26:58 10° N 03:32:04 63° WNW 03:33:39 42° SW
USA 234 3.1 03:27:43 10° SE 03:34:14 72° SW 03:40:46 10° NW
MSX 3.7 03:28:36 10° NNE 03:34:24 80° WNW 03:37:57 25° SSW
Cosmos 2360 Rocket 4.3 03:35:04 10° SSE 03:39:34 25° ESE 03:44:04 10° NE
CSL-04 DEB 4.4 03:36:17 10° S 03:40:35 78° WSW 03:44:58 10° NNW
Iridium 2 4.5 03:42:11 34° NW 03:42:11 34° NW 03:44:58 10° N
X-37B 0.9 03:42:02 56° SSE 03:42:02 56° SSE 03:44:53 10° ESE
Cosmos 1536 4.2 03:38:26 10° N 03:42:19 41° ENE 03:46:11 10° SSE
Cosmos 1898 Rocket 3.7 03:37:14 10° NNW 03:42:30 72° ENE 03:47:46 10° SSE
Cosmos 1697 Rocket 3.7 03:43:21 26° WNW 03:44:36 28° NW 03:49:26 10° N
IRIDIUM 104 4.2 03:40:21 10° N 03:45:37 88° W 03:50:50 10° S
BREEZE M DEB (TANK) 3.9 03:30:58 10° WNW 03:46:56 65° SW 03:51:24 10° SE
SL-8 R/B 3.8 03:45:53 39° W 03:47:20 55° SSW 03:52:00 10° SE
Cosmos 1980 Rocket 2.7 03:47:24 32° W 03:49:23 43° NW 03:54:48 10° NNE
Cosmos 921 Rocket 3.0 03:52:49 37° SW 03:54:10 55° WNW 03:58:18 10° N
IRIDIUM 114 4.2 03:49:31 10° N 03:54:45 74° W 03:59:56 10° S
Cosmos 2263 Rocket 2.2 03:50:04 10° NNW 03:55:37 59° WSW 04:01:11 10° S
Cosmos 2322 Rocket 2.7 03:50:28 10° S 03:56:01 60° ESE 04:01:38 10° NNE
Cosmos 1934 Rocket 4.5 03:50:47 10° NNW 03:56:11 35° W 03:59:39 20° SW
USA 32 4.0 03:55:06 10° N 04:00:23 86° E 04:05:39 10° S
Cosmos 1844 Rocket 4.1 03:56:14 10° NNW 04:01:33 40° NE 04:06:50 10° ESE
Cosmos 1500 3.7 03:58:53 10° NNW 04:02:26 36° W 04:03:18 31° WSW
Cosmos 1812 2.9 04:01:20 31° SW 04:02:49 48° WNW 04:06:34 10° N
Cosmos 2173 Rocket 4.4 03:56:40 10° N 04:02:59 67° E 04:09:20 10° SSE
Cosmos 1707 Rocket 3.6 03:58:55 10° S 04:03:14 82° E 04:07:36 10° N
IRIDIUM 103 4.3 03:58:43 10° N 04:03:52 61° W 04:09:00 10° SSW
SL-16 R/B 2.2 03:59:45 11° SSW 04:05:08 84° ESE 04:10:51 10° NNE
ADEOS II 3.9 04:02:59 10° NNW 04:05:35 14° NW 04:06:20 14° WNW
USA 305 4.0 04:03:31 21° WNW 04:05:42 35° NNW 04:09:37 10° NE
CZ-4C R/B 3.7 04:06:18 31° WSW 04:06:35 32° W 04:09:50 10° NNW
Cosmos 1666 2.5 04:04:19 10° NNW 04:08:08 71° W 04:11:54 10° S
Cosmos 1937 Rocket 3.5 04:03:12 10° NNW 04:08:24 86° ENE 04:13:32 10° SSE
Gbstr 26 Del rocket 4.4 04:01:38 10° WNW 04:09:41 70° SW 04:16:47 10° SE
USA 306 4.0 04:07:32 19° WNW 04:09:55 34° NNW 04:13:50 10° NE
ARIANE 5 R/B 3.8 04:06:26 10° NNW 04:10:17 22° WNW 04:11:42 20° W
ADEOS 4.1 04:05:52 10° NNE 04:11:04 62° ESE 04:16:13 10° S
IDEFIX/ARIANE 42P 3.7 04:10:59 10° N 04:15:19 26° WNW 04:17:39 19° W
Meteor 1-10 Rocket 4.4 04:09:44 10° SSW 04:15:23 56° WNW 04:21:12 10° N
Cosmos 841 Rocket 4.1 04:13:06 10° S 04:18:14 60° ESE 04:23:25 10° NNE
Cosmos 2228 Rocket 4.1 04:17:08 21° WSW 04:18:44 27° WNW 04:22:31 10° NNW
CZ-2C R/B 2.5 04:14:39 10° N 04:19:44 64° WNW 04:24:51 10° SSW
Cosmos 1733 Rocket 3.1 04:15:50 10° N 04:20:12 82° E 04:24:32 10° S
SAR-Lupe-4 3.7 04:17:17 10° SSE 04:20:51 78° ENE 04:24:28 10° N
Cosmos 44 Rocket 4.2 04:18:23 10° SSW 04:22:55 48° ESE 04:27:34 10° NE
SL-4 R/B 2.7 04:21:29 15° SW 04:25:14 61° SE 04:29:59 10° ENE
Cosmos 1869 Rocket 4.4 04:23:15 10° NNW 04:26:56 28° W 04:30:36 10° SSW
Cosmos 1763 Rocket 3.6 04:21:42 10° SSW 04:26:58 63° WNW 04:32:16 10° NNE
FALCON 9 DEB 3.3 04:30:09 15° SW 04:32:52 69° SSE 04:36:19 10° ENE
SAR-Lupe-1 3.9 04:29:28 10° S 04:33:01 78° WSW 04:36:37 10° NNW
Cosmos 2016 Rocket 4.2 04:27:33 10° N 04:33:43 76° E 04:39:47 10° SSE
CZ-2C R/B 4.4 04:31:39 10° NNW 04:34:12 17° WNW 04:35:35 15° W
Meteor 1-4 Rocket 3.5 04:33:51 15° WSW 04:35:56 26° WNW 04:38:56 10° NNW
Cosmos 1862 Rocket 3.5 04:33:01 10° S 04:37:24 88° W 04:41:47 10° N
SJ 16-02 2.5 04:34:14 10° NW 04:37:33 21° W 04:40:52 10° SSW
USA 307 4.2 04:34:10 11° WNW 04:37:48 30° N 04:41:36 10° NE
SJ-6F 4.4 04:34:11 10° N 04:38:17 63° WNW 04:42:18 10° SSW
Cosmos 1000 Rocket 4.4 04:32:12 10° SSW 04:38:24 79° W 04:44:35 10° N
PSLV R/B 4.2 04:35:29 10° N 04:39:16 33° WNW 04:43:02 10° SW
Cosmos 1570 Rocket 4.1 04:34:10 10° SSW 04:39:29 88° ESE 04:44:53 10° NNE
USA 276 2.9 04:36:45 11° WNW 04:39:45 48° N 04:42:53 10° E
NOSS 3-4 (A) 3.9 04:33:05 10° NW 04:40:06 80° SW 04:47:53 10° SSE
NOSS 3-4 (C) 3.9 04:33:11 10° NW 04:40:12 81° SW 04:48:00 10° SSE
USA 308 4.3 04:37:14 10° WNW 04:41:01 30° N 04:44:49 10° NE
USA 267 4.0 04:35:23 10° NE 04:41:27 42° NNW 04:47:30 10° W
BREEZE-M DEB (TANK) 2.8 04:35:46 11° WSW 04:42:15 62° SSE 04:44:58 10° E
BREEZE-M DEB (TANK) 3.7 04:40:44 13° W 04:43:36 68° N 04:53:06 10° ENE
Cosmos 2333 Rocket 4.1 04:40:15 10° SSE 04:45:21 34° ESE 04:50:28 10° NE
H-2A R/B 3.5 04:42:25 10° SW 04:45:24 18° W 04:48:28 10° NW
ERBS 3.3 04:43:59 13° W 04:46:39 34° NNW 04:49:45 10° NE
Cosmos 1743 2.7 04:42:57 10° N 04:46:47 89° ENE 04:50:35 10° S
Lacrosse 5 3.4 04:48:35 10° WNW 04:52:51 26° N 04:57:08 10° NE
Cosmos 1725 Rocket 4.1 04:47:10 10° N 04:53:24 88° E 04:59:34 10° S
Cosmos 540 Rocket 3.5 04:49:08 10° SSW 04:54:16 70° WNW 04:59:28 10° NNE
CZ-4B R/B 2.2 04:53:30 10° SSW 04:56:14 26° W 04:59:02 10° NW
DEBRIS 4.4 04:56:00 10° W 04:58:29 22° SSW 05:03:28 10° SSE
Cosmos 2100 Rocket 4.3 04:53:35 10° NNW 04:59:37 46° W 05:05:36 10° SSW
ATLAS 5 CENTAUR R/B 4.3 04:58:12 10° NNW 05:00:14 12° N 05:02:21 10° NNE
ALOS 2.4 04:57:37 10° N 05:02:13 58° WNW 05:06:48 10° SSW
CZ-4B R/B 2.7 04:59:42 10° NNE 05:03:24 82° ESE 05:06:59 10° SSW
ATLAS 2AS CENTAUR R/B 2.8 04:56:37 10° NW 05:04:04 69° WSW 05:10:52 10° SSE
Cosmos 1802 Rocket 4.1 04:58:42 10° NNW 05:04:43 54° W 05:10:47 10° SSW
CZ-4B R/B 4.2 05:00:44 10° N 05:04:59 58° WNW 05:09:20 10° SSW
ADEOS Rocket 3.8 05:02:37 10° SSW 05:08:39 33° W 05:14:11 10° NNW
